Weather observations for the past three days for
Marianna Municipal Airport
Imperial (Metric)
Date Time (cdt) Wind (mph) Vis. (mi.) Weather Sky Cond. Temperature (ºF) Relative Humidity Wind Chill (°F) Heat Index (°F) Pressure Precipitation (in)
Air Dwpt 6 hour altimeter (in) sea level (mb) 1 hr 3 hr 6 hr
Max. Min.
22 03:53 Calm 10.00 Fair CLR 69.1 64.9 87% 30.05 1017.2
22 02:53 Calm 10.00 Fair CLR 71.1 64.9 81% 30.05 1017.3
22 01:53 Calm 10.00 Fair CLR 71.1 66 84% 30.06 1017.7
22 00:53 Calm 10.00 Fair CLR 72 64.9 90 71.1 79% 30.07 1018.0
21 23:53 Calm 10.00 Fair CLR 73.9 66 76% 30.08 1018.3
21 22:53 Calm 10.00 Fair CLR 75 64 69% 77 30.08 1018.4
21 21:53 Calm 10.00 Fair CLR 77 64.9 66% 79 30.07 1017.9
21 20:53 Calm 10.00 Fair CLR 80.1 64 58% 82 30.05 1017.4
21 19:53 Calm 10.00 Fair CLR 87.1 60.1 40% 87 30.05 1017.4
21 18:53 E 8 10.00 Fair CLR 91 60.1 95 91 35% 91 30.05 1017.3
21 17:53 E 9 10.00 Fair CLR 91.9 57.9 32% 91 30.05 1017.2
21 16:53 E 12 G 22 10.00 Fair CLR 93 57.9 31% 92 30.05 1017.4
21 15:53 NE 13 G 20 10.00 Fair CLR 93.9 59 31% 93 30.07 1017.9
21 14:53 E 13 G 22 10.00 Fair CLR 93 61 34% 93 30.08 1018.5
21 13:53 E 14 G 24 10.00 Fair CLR 93 60.1 33% 93 30.1 1019.1
21 12:53 E 15 G 24 10.00 Fair CLR 91 61 91.9 73.9 37% 91 30.12 1019.8
21 11:53 NE 15 G 28 10.00 Fair CLR 90 64 42% 91 30.14 1020.2
21 10:53 E 17 G 25 10.00 Fair CLR 88 64 45% 89 30.15 1020.7
21 09:53 NE 15 10.00 Fair CLR 86 63 46% 87 30.16 1021.0
21 08:53 NE 10 10.00 Fair CLR 82 66 58% 84 30.17 1021.4
21 07:53 NE 9 10.00 Fair CLR 78.1 68 71% 80 30.18 1021.8
21 06:53 Calm 10.00 Fair CLR 73.9 68 77 69.1 82% 30.18 1021.6
21 05:53 NE 3 10.00 Fair CLR 69.1 66 90% 30.17 1021.3
21 04:53 Calm 10.00 Fair CLR 70 66.9 90% 30.16 1021.0
21 03:53 Calm 10.00 Fair CLR 72 66.9 84% 30.15 1020.7
21 02:53 NE 3 10.00 Fair CLR 72 68 87% 30.14 1020.5
21 01:53 E 5 10.00 Fair CLR 75.9 66.9 74% 77 30.15 1020.9
21 00:53 E 5 10.00 Fair CLR 77 66 89.1 75 69% 79 30.15 1020.8
20 23:53 Calm 10.00 Fair CLR 75 66 74% 76 30.16 1021.2
20 22:53 NE 6 10.00 Fair CLR 75.9 64.9 69% 78 30.16 1021.0
20 21:53 NE 3 10.00 Fair CLR 78.1 64.9 64% 80 30.15 1020.7
20 20:53 NE 3 10.00 Fair CLR 79 66.9 67% 81 30.13 1020.2
20 19:53 NE 7 10.00 Fair CLR 84 66 55% 86 30.12 1019.7
20 18:53 NE 13 10.00 Fair CLR 89.1 66 91 79 47% 92 30.11 1019.3 0.01
20 17:53 E 15 10.00 Fair CLR 90 69.1 50% 95 30.11 1019.2
20 16:53 E 15 G 24 10.00 Fair CLR 90 69.1 50% 95 30.12 1019.6
20 15:53 Calm 10.00 Overcast BKN065 OVC080 80.1 75 85% 85 30.14 1020.5 0.01 0.01
20 14:53 E 16 G 26 10.00 A Few Clouds FEW090 89.1 72 57% 96 30.15 1020.6
20 13:53 NE 18 G 23 10.00 Overcast FEW041 SCT050 OVC070 88 71.1 57% 94 30.16 1021.0
20 12:53 E 16 G 21 10.00 Mostly Cloudy BKN060 86 71.1 87.1 73.9 61% 92 30.17 1021.5
20 11:53 E 14 G 25 10.00 Mostly Cloudy FEW029 SCT043 BKN050 84.9 72 65% 91 30.18 1021.8
20 10:53 E 14 10.00 Light Rain BKN026 BKN035 OVC046 82 73 74% 87 30.19 1022.1
20 09:53 E 15 10.00 Overcast BKN024 OVC030 82 71.1 69% 86 30.19 1022.0
20 08:53 E 14 G 21 10.00 Overcast SCT018 OVC050 80.1 71.1 74% 84 30.18 1021.8
20 07:53 E 13 10.00 Mostly Cloudy BKN040 78.1 70 76% 80 30.17 1021.3
20 06:53 NE 9 10.00 A Few Clouds FEW048 73.9 68 73.9 71.1 82% 30.15 1020.9
20 05:53 NE 8 10.00 Partly Cloudy SCT060 71.1 68 90% 30.14 1020.3
20 04:53 NE 9 10.00 Fair CLR 71.1 66.9 87% 30.13 1020.0
20 03:53 E 6 10.00 Fair CLR 72 66.9 84% 30.13 1019.9
20 02:53 NE 8 10.00 Fair CLR 71.1 66.9 87% 30.12 1019.8
20 01:53 NE 7 10.00 Fair CLR 73 66.9 81% 30.13 1020.1
20 00:53 NE 8 10.00 Fair CLR 73.9 66.9 87.1 73.9 79% 30.14 1020.4
19 23:53 E 7 10.00 A Few Clouds FEW085 79 66 65% 81 30.14 1020.5
19 22:53 E 9 10.00 Fair CLR 81 66 61% 83 30.14 1020.3
19 21:53 E 9 10.00 A Few Clouds FEW070 82.9 66 57% 85 30.12 1019.7
19 20:53 E 9 10.00 A Few Clouds FEW060 82 64.9 56% 84 30.1 1019.0
19 19:53 E 5 10.00 Fair CLR 82.9 64 53% 84 30.09 1018.5
19 18:53 E 9 10.00 Fair CLR 88 62.1 91.9 86 42% 88 30.08 1018.3
19 17:53 E 16 10.00 Mostly Cloudy BKN075 89.1 63 42% 90 30.06 1017.7
19 16:53 NE 16 G 25 10.00 A Few Clouds FEW055 FEW075 91.9 64.9 41% 94 30.06 1017.6
19 15:53 NE 16 10.00 Mostly Cloudy SCT055 BKN075 90 66 45% 93 30.07 1018.0
19 14:53 E 14 10.00 Mostly Cloudy FEW047 BKN060 BKN075 88 66.9 50% 91 30.08 1018.4
19 13:53 E 14 10.00 Overcast BKN047 OVC055 88 68 52% 92 30.1 1019.0
19 12:53 E 12 G 21 10.00 Overcast BKN044 OVC055 86 68 88 77 55% 89 30.11 1019.5
19 11:53 E 14 G 26 10.00 Overcast BKN040 BKN050 OVC060 87.1 69.1 55% 91 30.12 1019.6
19 10:53 E 10 G 23 10.00 Mostly Cloudy SCT034 BKN060 86 69.1 57% 90 30.12 1019.7
19 09:53 E 12 G 22 10.00 Overcast FEW030 OVC060 84 70 63% 88 30.11 1019.5
19 08:53 E 14 10.00 Overcast OVC050 80.1 71.1 74% 84 30.12 1019.6
19 07:53 E 12 G 22 10.00 Overcast SCT022 BKN031 OVC050 78.1 70 76% 80 30.1 1019.2
19 06:53 E 10 10.00 Overcast SCT021 BKN035 OVC046 77 71.1 80.1 77 82% 79 30.08 1018.3
19 05:53 E 12 10.00 Overcast OVC042 78.1 70 76% 80 30.05 1017.5
19 04:53 E 13 10.00 Overcast FEW039 SCT047 OVC065 78.1 69.1 74% 80 30.05 1017.2
Date Time (cdt) Wind (mph) Vis. (mi.) Weather Sky Cond. Air Dwpt Max. Min. Relative Humidity Wind Chill (°F) Heat Index (°F) altimeter (in) sea level (mb) 1 hr 3 hr 6 hr
6 hour
Temperature (ºF) Pressure Precipitation (in)